This demonstration page uses our WeatherBlox Daily Observations layout. Learn more.

Left ArrowRight Arrow

30.21309, -93.2044

Hourly Observations for October 28, 2015

Temp ( °F °C ) Dew Point ( °F °C ) Humidity (%) Winds ( mph kmh ) Pressure ( in mb ) Visibility ( mi km ) Precip ( " mm )
12:15 am 00:15 Clear 58 14.3 58 14.3 100 100 S 3 6 29.83 1010 7 11 0.00 0.00
12:35 am 00:35 Clear with Mist and Fog 58 14.2 58 14.2 100 100 SSE 3 6 29.83 1010 4 6 0.00 0.00
12:55 am 00:55 Clear with Mist and Fog 57 13.9 57 13.9 100 100 SSE 3 6 29.83 1010 2 3 0.00 0.00
1:15 am 01:15 Clear with Mist and Fog 57 13.7 57 13.7 100 100 Calm 29.83 1010 3 4 0.00 0.00
1:35 am 01:35 Clear with Mist and Fog 59 14.8 59 14.8 100 100 Calm 29.83 1010 5 8 0.00 0.00
1:55 am 01:55 Mostly Cloudy with Mist and Fog 58 14.6 58 14.6 100 100 Calm 29.83 1010 1 1 0.00 0.00
2:15 am 02:15 Clear with Mist and Fog 59 14.8 59 14.8 100 100 Calm 29.83 1010 4 6 0.00 0.00
2:35 am 02:35 Mostly Cloudy with Mist and Fog 58 14.5 58 14.5 100 100 Calm 29.83 1010 2 3 0.00 0.00
2:55 am 02:55 Clear with Mist and Fog 57 14 57 14 100 100 Calm 29.83 1010 4 6 0.00 0.00
3:15 am 03:15 Clear with Mist and Fog 58 14.2 58 14.2 100 100 Calm 29.83 1010 4 6 0.00 0.00
3:35 am 03:35 Clear with Mist and Fog 58 14.2 58 14.2 100 100 Calm 29.83 1010 3 5 0.00 0.00
3:55 am 03:55 Mostly Cloudy with Mist and Fog 58 14.3 58 14.3 100 100 Calm 29.83 1010 2 2 0.00 0.00
4:15 am 04:15 Clear with Mist and Fog 58 14.2 58 14.2 100 100 Calm 29.83 1010 3 4 0.00 0.00
4:35 am 04:35 Mostly Cloudy with Mist and Fog 58 14.6 58 14.6 100 100 Calm 29.80 1009 2 2 0.00 0.00
4:55 am 04:55 Mostly Cloudy with Fog 58 14.5 58 14.5 100 100 Calm 29.83 1010 1 1 0.00 0.00
5:15 am 05:15 Mostly Cloudy with Fog 58 14.7 58 14.7 100 100 Calm 29.83 1010 1 1 0.00 0.00
6:00 am 06:00 Cloudy 59 15 59 15 100 100 Calm 29.83 1010 1 1 0.00 0.00
6:55 am 06:55 Cloudy 59 15 59 15 100 100 Calm 29.83 1010 1 1 0.00 0.00
8:45 am 08:45 Mostly Sunny 64 18 64 18 100 100 S 7 11 29.83 1010 10 16 0.00 0.00
9:55 am 09:55 Mostly Sunny 73 23 66 19 78 78 SSW 17 28 29.83 1010 10 16 0.00 0.00
11:55 am 11:55 Mostly Cloudy 81 27 68 20 66 66 SSW 17 28 29.83 1010 10 16 0.00 0.00
1:55 pm 13:55 Partly Cloudy 82 28 64 18 55 55 SSW 16 26 29.80 1009 10 16 0.00 0.00
2:50 pm 14:50 Mostly Sunny 82 28 66 19 58 58 SSW 18 30 29.77 1008 10 16 0.00 0.00
3:45 pm 15:45 Mostly Sunny 82 28 70 21 66 66 SSW 18 30 29.77 1008 10 16 0.00 0.00
4:50 pm 16:50 Mostly Sunny 79 26 70 21 74 74 SSW 13 20 29.77 1008 10 16 0.00 0.00
5:50 pm 17:50 Mostly Sunny 77 25 70 21 79 79 SW 14 22 29.77 1008 10 16 0.00 0.00
6:50 pm 18:50 Mostly Clear 75 24 72 22 89 89 SSW 10 17 29.77 1008 10 16 0.00 0.00
9:50 pm 21:50 Mostly Clear 68 20 57 14 69 69 NW 5 7 29.83 1010 10 16 0.00 0.00
10:15 pm 22:15 Clear 66 19 58 14.3 74 74 NW 6 9 29.83 1010 10 16 0.00 0.00
10:35 pm 22:35 Clear 66 18.9 58 14.3 75 75 NW 5 7 29.85 1011 10 16 0.00 0.00
10:55 pm 22:55 Clear 65 18.4 58 14.3 77 77 NW 5 7 29.85 1011 10 16 0.00 0.00
11:15 pm 23:15 Clear 64 17.8 58 14.5 81 81 NW 6 9 29.85 1011 10 16 0.00 0.00
11:35 pm 23:35 Clear 64 17.7 58 14.4 81 81 NW 3 6 29.85 1011 10 16 0.00 0.00
11:55 pm 23:55 Clear 64 17.5 58 14.3 82 82 NW 3 6 29.85 1011 10 16 0.00 0.00

Powered by AerisWeather